SCP
-0 -0 -0 -0 -0 0 0 0 0 0 0 -0 -0 -0 -0 -0 -0 0 0 -0 0 0 0 0 0 0 0 0 0 0 0 -0 -0 -0 0 -0 -0 -0 0 -0 0 0 0 -0 -0
-0 -0 -0 -0 -0 0 0 0 0 -0 -0 -0 -0 0 0 0 0 0 -0 0 0 0 0 0 0 0 0 0 0 0 0 -0 -0 -0 -0 -0 -0 -0 -0 -0 -0 -0 -0 -0 -0
-0 -0 -0 -0 0 0 0 0 -0 -0 -0 -0 -0 0 0 0 0 0 0 0 0 0 0 0 0 0 0 0 0 0 0 0 -0 0 0 0 -0 -0 0 -0 -0 -0 -0 -0 -0
-0 -0 -0 -0 -0 -0 -0 -0 -0 -0 -0 -0 0 0 0 0 0 0 0 0 0 0 0 0 0 0 0 0 0 0 -0 -0 0 -0 -0 -0 -0 -0 -0 -0 -0 -0 -0 -0 -0
-0 -0 -0 -0 -0 -0 -0 -0 -0 -0 -0 0 0 0 0 0 0 0 0 0 0 0 0 0 0 0 0 0 0 0 0 0 0 -0 0 -0 -0 0 -0 -0 -0 -0 -0 -0 -0
-0 -0 -0 -0 -0 -0 -0 -0 -0 -0 -0 0 0 0 0 0 -0 0 0 0 0 0 0 0 0 0 0 0 0 0 -0 0 -0 -0 -0 -0 -0 0 0 -0 -0 -0 -0 -0 -0
-0 -0 -0 -0 -0 -0 -0 -0 -0 -0 0 0 0 0 0 -0 0 0 0 0 0 0 0 0 0 0 0 0 0 0 0 -0 -0 -0 -0 -0 -0 0 0 -0 -0 -0 -0 -0 -0
-0 -0 -0 -0 -0 -0 -0 -0 -0 0 0 0 0 0 0 0 0 -0 0 -0 0 0 0 0 0 0 0 0 0 0 -0 0 -0 -0 0 -0 -0 0 -0 -0 -0 -0 -0 -0 -0
-0 -0 -0 -0 -0 -0 -0 -0 -0 -0 -0 -0 0 0 -0 0 -0 -0 -0 0 -0 0 0 0 0 0 0 0 -0 0 -0 0 0 0 0 -0 0 0 0 -0 -0 -0 -0 -0 -0
-0 -0 -0 -0 -0 -0 -0 -0 0 -0 -0 -0 0 0 -0 -0 -0 -0 -0 -0 -0 -0 -0 0 0 0 0 0 -0 0 -0 -0 0 -0 -0 -0 -0 0 0 -0 -0 -0 -0 -0 -0
-0 -0 -0 -0 -0 -0 -0 -0 -0 -0 -0 0 0 0 0 0 0 -0 0 0 -0 0 -0 -0 -0 0 -0 -0 -0 -0 -0 0 -0 0 0 -0 -0 0 0 -0 -0 -0 -0 -0 -0
-0 -0 -0 -0 -0 -0 -0 -0 0 0 0 -0 0 0 0 0 0 0 -0 -0 -0 0 -0 -0 0 -0 -0 -0 0 0 0 0 0 0 -0 -0 -0 -0 0 -0 -0 -0 -0 -0 -0
-0 -0 -0 -0 -0 0 0 0 0 -0 -0 0 0 0 0 0 0 0 -0 -0 -0 -0 -0 -0 0 0 -0 0 0 -0 0 0 0 0 0 0 -0 0 0 0 0 -0 -0 -0 -0
-0 -0 -0 -0 0 0 0 0 0 0 0 0 0 0 0 0 0 0 0 0 -0 -0 -0 -0 -0 -0 -0 0 -0 0 0 0 0 0 0 0 0 0 0 -0 0 -0 -0 -0 -0
0 -0 -0 0 0 0 0 0 0 -0 0 0 0 0 0 0 0 0 0 0 -0 0 0 0 -0 -0 0 0 0 -0 0 0 0 0 0 0 -0 0 0 -0 0 0 -0 -0 -0
0 0 0 0 0 0 0 0 -0 0 0 0 0 0 0 0 0 0 0 0 0 -0 0 -0 0 0 0 0 0 0 0 0 0 0 0 0 0 0 0 0 -0 0 0 0 0
0 0 0 0 0 0 0 0 0 0 0 0 0 0 0 0 0 0 0 0 0 0 0 0 0 0 0 -0 0 0 0 0 0 0 0 0 0 0 -0 0 0 0 0 0 0
0 0 0 0 0 0 0 0 0 0 0 0 0 0 0 0 0 0 0 0 0 -0 0 0 0 0 0 0 0 0 0 -0 0 0 -0 0 0 0 0 0 -0 0 0 0 0
0 0 0 0 0 0 0 0 0 0 0 0 0 0 0 0 0 0 0 0 0 0 0 0 0 0 0 0 0 0 0 -0 -0 0 0 0 0 -0 0 0 0 0 0 0 0
0 0 0 0 0 0 0 0 0 0 0 0 0 0 0 0 0 0 0 0 0 0 0 0 0 0 0 0 0 0 0 0 0 0 0 0 0 0 0 -0 0 0 0 0 0
0 0 0 0 0 0 0 0 0 0 0 0 0 0 0 0 0 0 0 0 0 0 0 -0 0 -0 0 0 0 0 0 0 0 0 0 0 0 0 0 0 0 0 0 0 0
0 0 0 0 0 0 0 0 0 0 0 0 0 0 0 0 0 0 0 0 0 0 0 0 0 0 0 0 0 0 0 0 0 0 0 0 0 0 0 0 0 0 0 0 0
0 0 0 0 0 0 0 0 0 0 0 0 0 0 0 0 0 0 0 0 0 0 0 0 0 0 0 0 0 0 -0 0 0 0 0 0 0 0 0 0 0 0 0 0 0
0 0 0 0 0 0 0 0 0 0 0 0 0 0 0 0 0 0 0 0 0 0 0 0 0 0 0 0 0 0 0 0 0 0 0 0 0 0 0 0 1 0 0 0 0
0 0 0 0 0 0 0 0 0 0 0 0 0 0 0 0 0 0 0 0 0 0 0 0 0 0 0 0 0 0 0 0 0 0 0 0 0 0 0 0 0 0 1 0 0
0 0 0 0 0 0 0 0 0 0 0 0 0 0 0 0 0 0 0 0 0 0 0 0 0 0 0 0 0 0 0 0 0 0 0 0 0 0 1 0 1 0 0 0 1
0 0 0 0 0 0 0 0 0 0 0 0 0 0 0 0 0 0 0 0 0 0 0 0 0 0 0 0 0 0 0 0 0 0 0 0 0 1 1 0 1 1 0 0 1
Wind_Speed_500mb
8 8 6 5 6 7 7 7 8 8 8 9 10 10 9 10 13 12 7 7 13 15 16 12 5 2 1 3 3 5 9 10 15 3 15 17 11 10 5 24 5 3 1 26 47
8 7 7 7 7 7 7 8 8 9 10 11 11 12 13 15 8 2 6 8 9 17 18 11 3 1 4 4 4 9 5 11 4 6 6 13 11 16 12 18 8 11 22 41 48
10 9 9 9 9 8 8 8 7 8 9 10 11 13 17 9 8 7 14 16 19 17 13 9 5 6 6 4 2 3 8 5 7 3 3 13 11 13 5 10 7 17 35 44 48
11 10 10 9 9 9 9 8 7 7 8 10 11 14 15 16 4 8 14 16 10 15 11 5 1 5 2 5 5 6 7 2 8 9 4 9 12 11 12 11 3 22 35 45 46
12 12 11 11 11 10 10 10 8 8 8 9 9 11 12 5 5 14 14 15 13 14 7 2 9 10 9 10 2 6 10 2 11 12 8 7 12 5 12 3 14 31 40 40 41
14 13 12 12 12 12 12 12 9 9 9 10 8 8 4 15 10 13 19 16 15 9 3 3 10 16 11 11 9 17 14 7 12 18 14 16 8 11 11 17 25 36 38 38 39
14 15 14 13 11 12 13 12 11 9 9 9 9 10 4 2 12 11 21 17 16 12 5 11 14 15 22 8 14 9 7 14 7 7 7 16 16 15 14 25 30 37 38 38 40
17 16 15 13 13 13 12 12 12 11 9 9 8 8 5 6 14 12 23 18 13 11 6 9 12 16 10 14 5 4 4 2 12 11 6 15 6 12 22 30 32 36 38 39 42
18 17 16 15 14 13 13 11 11 11 11 10 7 3 5 3 10 20 21 10 16 14 11 13 13 11 9 9 14 7 5 9 2 9 6 18 16 11 18 30 32 36 38 40 40
21 21 19 15 13 14 11 10 10 10 12 11 13 10 12 8 13 21 25 16 10 16 11 9 10 12 8 11 12 15 11 8 12 7 14 20 23 13 17 30 33 34 39 44 43
21 20 21 20 15 11 7 5 8 8 16 13 4 5 11 11 13 15 27 18 15 18 21 13 17 13 10 8 13 15 10 8 13 13 12 14 20 18 17 30 34 35 43 48 48
23 21 21 18 18 8 5 4 3 2 11 20 26 19 11 11 12 18 28 25 21 25 13 15 21 5 7 11 14 14 17 9 5 6 11 13 23 18 16 28 34 35 41 49 48
25 23 21 18 12 1 9 12 6 6 13 11 16 20 23 22 15 24 36 27 21 23 22 25 3 1 9 16 17 16 16 15 18 10 14 15 27 6 11 20 28 35 40 47 53
25 23 19 16 3 5 5 12 7 6 9 18 13 11 18 21 20 28 29 22 17 23 22 20 18 21 20 19 15 27 10 20 22 17 15 6 21 20 7 21 18 29 40 47 54
28 22 18 9 7 3 11 7 6 6 9 8 13 6 11 32 9 31 33 28 30 21 14 19 12 17 19 17 11 21 12 19 21 24 17 23 16 17 6 15 16 6 26 38 48
28 23 16 11 9 13 13 3 6 12 7 10 11 16 18 31 27 14 26 25 19 31 27 35 1 11 23 10 18 21 23 19 20 18 22 6 17 21 9 14 18 6 9 11 31
26 22 16 12 9 18 13 11 11 11 5 12 8 12 17 18 32 28 25 34 27 24 32 36 40 38 28 35 34 22 28 22 23 17 18 13 14 19 24 19 20 20 10 6 11
24 18 15 18 20 22 15 13 14 4 5 5 5 7 13 15 19 37 28 28 40 37 27 24 26 39 31 32 37 36 33 29 32 22 22 13 13 11 17 20 13 11 7 5 3
19 13 12 20 25 27 19 17 4 3 3 5 9 13 13 14 9 24 39 35 24 27 37 23 30 25 18 19 14 29 26 37 35 29 22 30 8 26 12 7 4 6 6 5 3
12 4 6 18 31 28 18 27 4 4 6 7 8 5 10 4 15 17 23 27 46 28 33 31 31 32 24 25 29 26 12 19 24 35 34 23 9 16 17 21 5 5 8 6 4
1 9 9 17 32 22 21 26 13 9 7 7 3 5 3 6 10 12 10 14 20 19 42 37 28 30 28 23 29 17 26 24 25 15 21 23 14 9 20 18 15 11 4 6 5
2 8 11 34 20 16 24 18 4 10 13 11 11 15 20 18 18 13 17 21 15 24 26 31 18 25 35 35 27 26 24 28 22 33 22 22 26 17 1 11 11 4 3 2 5
2 5 8 20 12 17 8 18 19 16 19 10 12 9 6 11 10 13 18 7 15 16 12 16 20 25 30 26 21 27 40 36 34 31 31 27 26 15 8 6 1 5 4 3 3
4 8 10 13 8 14 17 20 20 15 19 19 19 18 24 26 24 17 16 5 6 22 6 11 28 21 25 15 16 21 31 41 38 29 33 38 30 33 18 5 10 8 7 5 5
6 4 6 10 16 11 10 6 17 14 16 11 13 24 26 25 28 34 29 26 27 20 11 16 28 28 29 29 20 21 30 28 34 39 43 30 31 15 7 8 13 18 15 12 8
8 9 5 5 7 16 12 16 17 11 9 10 15 10 19 23 26 23 15 21 22 5 20 21 29 24 32 23 18 20 17 24 30 35 33 31 35 20 5 8 21 26 23 19 16
14 10 7 5 10 14 12 12 11 3 9 10 9 17 15 7 13 27 35 36 29 21 23 19 20 21 34 35 32 28 36 39 31 28 26 30 26 11 8 13 23 29 28 24 20
Wind_Direction_500mb
2 360 350 330 311 313 318 319 331 346 340 342 341 346 343 316 297 266 287 244 197 178 145 162 147 205 314 289 310 268 219 123 101 94 96 151 159 145 113 140 150 129 145 147 161
1 356 335 324 318 313 308 314 326 336 339 342 346 347 343 338 35 37 148 124 145 172 165 156 172 225 265 260 242 269 289 52 48 56 66 156 182 161 164 157 130 112 123 147 156
357 349 336 332 321 310 305 303 320 324 330 333 352 350 356 12 97 57 140 136 84 143 182 190 237 289 271 227 121 76 27 101 134 144 355 140 180 176 168 187 154 159 152 157 164
356 347 335 327 317 311 301 299 303 309 317 334 355 2 27 42 43 102 122 177 144 119 148 163 281 275 11 59 50 242 104 127 104 157 138 154 145 193 206 79 54 160 165 165 173
357 347 338 328 319 307 301 296 294 296 310 325 354 15 76 94 104 200 197 174 161 130 132 70 7 337 36 355 295 304 18 241 192 183 221 183 197 207 212 179 147 157 165 174 178
354 346 338 330 320 309 299 293 285 285 297 313 337 356 57 187 211 197 194 193 187 173 220 318 351 343 298 326 332 331 318 278 217 202 223 233 184 204 180 168 158 164 174 179 182
348 343 337 326 316 303 292 288 285 283 289 305 323 335 272 59 189 171 194 187 196 196 259 289 311 325 328 300 337 307 266 162 118 194 206 240 220 222 170 172 172 177 182 185 188
342 340 334 327 317 305 291 282 277 273 272 284 305 327 311 193 180 179 179 193 201 212 223 303 305 298 279 312 224 259 239 2 114 183 148 223 8 147 176 186 188 192 189 191 196
338 332 329 326 318 304 293 284 274 271 271 273 291 305 163 202 177 184 180 195 196 212 234 261 296 284 256 267 191 227 33 11 35 201 162 231 312 73 189 205 203 201 198 197 201
334 330 326 323 314 301 287 267 254 263 265 273 256 256 207 150 175 181 184 169 180 191 213 233 245 264 211 290 40 346 349 27 8 41 224 256 266 269 216 218 220 206 204 202 202
327 325 322 324 323 304 276 275 271 240 226 249 97 284 134 138 144 178 185 179 179 213 230 206 260 219 8 354 333 325 320 342 57 18 302 292 307 293 219 228 226 213 207 207 208
323 321 320 326 324 313 190 222 206 205 282 241 244 249 199 162 178 171 173 192 203 227 203 219 241 185 289 291 302 297 276 77 182 345 282 308 304 290 253 236 233 224 213 213 206
319 316 320 326 330 298 180 178 158 2 257 199 222 238 222 213 220 187 182 206 220 228 226 260 79 146 277 282 278 255 309 346 335 300 236 282 269 202 266 260 244 232 226 215 210
319 313 315 323 347 324 166 200 286 315 260 145 192 206 210 213 237 213 199 208 217 242 235 261 264 255 254 255 270 283 26 326 321 310 312 263 302 286 310 303 236 233 226 221 214
321 312 306 297 272 161 208 217 269 180 257 125 144 186 189 199 136 199 210 216 245 216 238 243 195 207 214 260 280 288 322 322 309 295 298 247 270 306 170 292 302 241 227 225 219
318 309 298 279 248 208 191 232 160 229 216 144 143 177 176 204 214 147 189 210 244 249 231 264 129 259 265 266 254 295 284 264 259 279 271 7 315 298 341 303 311 288 325 276 231
314 302 282 249 206 194 188 166 226 250 131 145 151 189 215 184 212 202 187 200 215 216 233 235 237 238 235 262 252 244 261 263 248 228 260 64 300 296 305 308 322 334 330 312 257
315 294 258 226 202 180 168 220 247 47 232 116 241 230 221 172 214 206 208 211 219 249 265 256 243 227 228 240 266 253 244 255 262 265 292 143 280 297 336 306 298 308 298 279 287
320 293 243 212 195 185 202 218 267 242 357 295 218 223 170 174 257 207 220 226 220 213 239 251 247 260 255 243 248 241 234 253 279 267 264 269 234 254 274 304 31 288 233 227 216
324 187 211 200 187 175 220 240 218 293 312 260 269 288 192 165 216 204 188 222 237 220 235 248 265 264 251 213 248 253 322 217 229 260 268 264 261 270 331 335 22 234 210 185 216
143 201 297 186 167 194 224 225 240 213 285 307 254 278 263 320 285 224 218 208 209 221 221 237 236 265 217 219 245 184 230 235 287 283 275 267 265 83 305 326 314 298 175 178 164
163 210 164 149 192 210 229 212 221 226 219 273 289 282 280 293 281 257 247 248 217 223 213 221 244 246 256 230 232 279 251 229 232 229 241 284 285 306 348 312 316 345 160 180 154
327 110 154 179 216 210 184 220 240 230 240 244 258 242 322 278 275 258 279 295 232 219 218 187 227 251 239 203 211 227 235 241 253 249 263 273 270 135 157 265 247 167 190 223 216
276 189 166 208 270 270 205 221 217 215 250 255 262 267 262 256 245 266 273 329 311 259 318 231 261 250 279 325 345 216 232 230 243 241 245 247 256 276 310 267 180 176 166 162 180
339 69 336 186 201 221 218 184 213 209 223 221 235 245 258 255 251 247 253 267 272 221 242 255 258 265 267 285 288 270 283 256 237 241 251 262 258 270 328 273 208 180 169 167 167
353 335 294 269 229 225 173 207 240 194 234 181 241 321 279 252 258 299 328 285 264 250 252 243 261 271 260 246 256 280 273 272 255 250 267 286 287 309 115 195 163 169 173 170 159
6 343 307 151 213 224 214 231 229 239 210 252 324 310 286 332 299 285 276 272 271 284 286 270 258 234 260 270 289 289 273 277 245 242 253 260 305 124 175 205 181 172 171 162 148
Wind_Speed_850mb
8 8 6 5 6 7 7 7 8 8 8 9 10 10 9 10 13 12 7 7 13 15 16 12 5 2 1 3 3 5 9 10 15 3 15 17 11 10 5 24 5 3 1 26 47
8 7 7 7 7 7 7 8 8 9 10 11 11 12 13 15 8 2 6 8 9 17 18 11 3 1 4 4 4 9 5 11 4 6 6 13 11 16 12 18 8 11 22 41 48
10 9 9 9 9 8 8 8 7 8 9 10 11 13 17 9 8 7 14 16 19 17 13 9 5 6 6 4 2 3 8 5 7 3 3 13 11 13 5 10 7 17 35 44 48
11 10 10 9 9 9 9 8 7 7 8 10 11 14 15 16 4 8 14 16 10 15 11 5 1 5 2 5 5 6 7 2 8 9 4 9 12 11 12 11 3 22 35 45 46
12 12 11 11 11 10 10 10 8 8 8 9 9 11 12 5 5 14 14 15 13 14 7 2 9 10 9 10 2 6 10 2 11 12 8 7 12 5 12 3 14 31 40 40 41
14 13 12 12 12 12 12 12 9 9 9 10 8 8 4 15 10 13 19 16 15 9 3 3 10 16 11 11 9 17 14 7 12 18 14 16 8 11 11 17 25 36 38 38 39
14 15 14 13 11 12 13 12 11 9 9 9 9 10 4 2 12 11 21 17 16 12 5 11 14 15 22 8 14 9 7 14 7 7 7 16 16 15 14 25 30 37 38 38 40
17 16 15 13 13 13 12 12 12 11 9 9 8 8 5 6 14 12 23 18 13 11 6 9 12 16 10 14 5 4 4 2 12 11 6 15 6 12 22 30 32 36 38 39 42
18 17 16 15 14 13 13 11 11 11 11 10 7 3 5 3 10 20 21 10 16 14 11 13 13 11 9 9 14 7 5 9 2 9 6 18 16 11 18 30 32 36 38 40 40
21 21 19 15 13 14 11 10 10 10 12 11 13 10 12 8 13 21 25 16 10 16 11 9 10 12 8 11 12 15 11 8 12 7 14 20 23 13 17 30 33 34 39 44 43
21 20 21 20 15 11 7 5 8 8 16 13 4 5 11 11 13 15 27 18 15 18 21 13 17 13 10 8 13 15 10 8 13 13 12 14 20 18 17 30 34 35 43 48 48
23 21 21 18 18 8 5 4 3 2 11 20 26 19 11 11 12 18 28 25 21 25 13 15 21 5 7 11 14 14 17 9 5 6 11 13 23 18 16 28 34 35 41 49 48
25 23 21 18 12 1 9 12 6 6 13 11 16 20 23 22 15 24 36 27 21 23 22 25 3 1 9 16 17 16 16 15 18 10 14 15 27 6 11 20 28 35 40 47 53
25 23 19 16 3 5 5 12 7 6 9 18 13 11 18 21 20 28 29 22 17 23 22 20 18 21 20 19 15 27 10 20 22 17 15 6 21 20 7 21 18 29 40 47 54
28 22 18 9 7 3 11 7 6 6 9 8 13 6 11 32 9 31 33 28 30 21 14 19 12 17 19 17 11 21 12 19 21 24 17 23 16 17 6 15 16 6 26 38 48
28 23 16 11 9 13 13 3 6 12 7 10 11 16 18 31 27 14 26 25 19 31 27 35 1 11 23 10 18 21 23 19 20 18 22 6 17 21 9 14 18 6 9 11 31
26 22 16 12 9 18 13 11 11 11 5 12 8 12 17 18 32 28 25 34 27 24 32 36 40 38 28 35 34 22 28 22 23 17 18 13 14 19 24 19 20 20 10 6 11
24 18 15 18 20 22 15 13 14 4 5 5 5 7 13 15 19 37 28 28 40 37 27 24 26 39 31 32 37 36 33 29 32 22 22 13 13 11 17 20 13 11 7 5 3
19 13 12 20 25 27 19 17 4 3 3 5 9 13 13 14 9 24 39 35 24 27 37 23 30 25 18 19 14 29 26 37 35 29 22 30 8 26 12 7 4 6 6 5 3
12 4 6 18 31 28 18 27 4 4 6 7 8 5 10 4 15 17 23 27 46 28 33 31 31 32 24 25 29 26 12 19 24 35 34 23 9 16 17 21 5 5 8 6 4
1 9 9 17 32 22 21 26 13 9 7 7 3 5 3 6 10 12 10 14 20 19 42 37 28 30 28 23 29 17 26 24 25 15 21 23 14 9 20 18 15 11 4 6 5
2 8 11 34 20 16 24 18 4 10 13 11 11 15 20 18 18 13 17 21 15 24 26 31 18 25 35 35 27 26 24 28 22 33 22 22 26 17 1 11 11 4 3 2 5
2 5 8 20 12 17 8 18 19 16 19 10 12 9 6 11 10 13 18 7 15 16 12 16 20 25 30 26 21 27 40 36 34 31 31 27 26 15 8 6 1 5 4 3 3
4 8 10 13 8 14 17 20 20 15 19 19 19 18 24 26 24 17 16 5 6 22 6 11 28 21 25 15 16 21 31 41 38 29 33 38 30 33 18 5 10 8 7 5 5
6 4 6 10 16 11 10 6 17 14 16 11 13 24 26 25 28 34 29 26 27 20 11 16 28 28 29 29 20 21 30 28 34 39 43 30 31 15 7 8 13 18 15 12 8
8 9 5 5 7 16 12 16 17 11 9 10 15 10 19 23 26 23 15 21 22 5 20 21 29 24 32 23 18 20 17 24 30 35 33 31 35 20 5 8 21 26 23 19 16
14 10 7 5 10 14 12 12 11 3 9 10 9 17 15 7 13 27 35 36 29 21 23 19 20 21 34 35 32 28 36 39 31 28 26 30 26 11 8 13 23 29 28 24 20
Wind_Direction_850mb
2 360 350 330 311 313 318 319 331 346 340 342 341 346 343 316 297 266 287 244 197 178 145 162 147 205 314 289 310 268 219 123 101 94 96 151 159 145 113 140 150 129 145 147 161
1 356 335 324 318 313 308 314 326 336 339 342 346 347 343 338 35 37 148 124 145 172 165 156 172 225 265 260 242 269 289 52 48 56 66 156 182 161 164 157 130 112 123 147 156
357 349 336 332 321 310 305 303 320 324 330 333 352 350 356 12 97 57 140 136 84 143 182 190 237 289 271 227 121 76 27 101 134 144 355 140 180 176 168 187 154 159 152 157 164
356 347 335 327 317 311 301 299 303 309 317 334 355 2 27 42 43 102 122 177 144 119 148 163 281 275 11 59 50 242 104 127 104 157 138 154 145 193 206 79 54 160 165 165 173
357 347 338 328 319 307 301 296 294 296 310 325 354 15 76 94 104 200 197 174 161 130 132 70 7 337 36 355 295 304 18 241 192 183 221 183 197 207 212 179 147 157 165 174 178
354 346 338 330 320 309 299 293 285 285 297 313 337 356 57 187 211 197 194 193 187 173 220 318 351 343 298 326 332 331 318 278 217 202 223 233 184 204 180 168 158 164 174 179 182
348 343 337 326 316 303 292 288 285 283 289 305 323 335 272 59 189 171 194 187 196 196 259 289 311 325 328 300 337 307 266 162 118 194 206 240 220 222 170 172 172 177 182 185 188
342 340 334 327 317 305 291 282 277 273 272 284 305 327 311 193 180 179 179 193 201 212 223 303 305 298 279 312 224 259 239 2 114 183 148 223 8 147 176 186 188 192 189 191 196
338 332 329 326 318 304 293 284 274 271 271 273 291 305 163 202 177 184 180 195 196 212 234 261 296 284 256 267 191 227 33 11 35 201 162 231 312 73 189 205 203 201 198 197 201
334 330 326 323 314 301 287 267 254 263 265 273 256 256 207 150 175 181 184 169 180 191 213 233 245 264 211 290 40 346 349 27 8 41 224 256 266 269 216 218 220 206 204 202 202
327 325 322 324 323 304 276 275 271 240 226 249 97 284 134 138 144 178 185 179 179 213 230 206 260 219 8 354 333 325 320 342 57 18 302 292 307 293 219 228 226 213 207 207 208
323 321 320 326 324 313 190 222 206 205 282 241 244 249 199 162 178 171 173 192 203 227 203 219 241 185 289 291 302 297 276 77 182 345 282 308 304 290 253 236 233 224 213 213 206
319 316 320 326 330 298 180 178 158 2 257 199 222 238 222 213 220 187 182 206 220 228 226 260 79 146 277 282 278 255 309 346 335 300 236 282 269 202 266 260 244 232 226 215 210
319 313 315 323 347 324 166 200 286 315 260 145 192 206 210 213 237 213 199 208 217 242 235 261 264 255 254 255 270 283 26 326 321 310 312 263 302 286 310 303 236 233 226 221 214
321 312 306 297 272 161 208 217 269 180 257 125 144 186 189 199 136 199 210 216 245 216 238 243 195 207 214 260 280 288 322 322 309 295 298 247 270 306 170 292 302 241 227 225 219
318 309 298 279 248 208 191 232 160 229 216 144 143 177 176 204 214 147 189 210 244 249 231 264 129 259 265 266 254 295 284 264 259 279 271 7 315 298 341 303 311 288 325 276 231
314 302 282 249 206 194 188 166 226 250 131 145 151 189 215 184 212 202 187 200 215 216 233 235 237 238 235 262 252 244 261 263 248 228 260 64 300 296 305 308 322 334 330 312 257
315 294 258 226 202 180 168 220 247 47 232 116 241 230 221 172 214 206 208 211 219 249 265 256 243 227 228 240 266 253 244 255 262 265 292 143 280 297 336 306 298 308 298 279 287
320 293 243 212 195 185 202 218 267 242 357 295 218 223 170 174 257 207 220 226 220 213 239 251 247 260 255 243 248 241 234 253 279 267 264 269 234 254 274 304 31 288 233 227 216
324 187 211 200 187 175 220 240 218 293 312 260 269 288 192 165 216 204 188 222 237 220 235 248 265 264 251 213 248 253 322 217 229 260 268 264 261 270 331 335 22 234 210 185 216
143 201 297 186 167 194 224 225 240 213 285 307 254 278 263 320 285 224 218 208 209 221 221 237 236 265 217 219 245 184 230 235 287 283 275 267 265 83 305 326 314 298 175 178 164
163 210 164 149 192 210 229 212 221 226 219 273 289 282 280 293 281 257 247 248 217 223 213 221 244 246 256 230 232 279 251 229 232 229 241 284 285 306 348 312 316 345 160 180 154
327 110 154 179 216 210 184 220 240 230 240 244 258 242 322 278 275 258 279 295 232 219 218 187 227 251 239 203 211 227 235 241 253 249 263 273 270 135 157 265 247 167 190 223 216
276 189 166 208 270 270 205 221 217 215 250 255 262 267 262 256 245 266 273 329 311 259 318 231 261 250 279 325 345 216 232 230 243 241 245 247 256 276 310 267 180 176 166 162 180
339 69 336 186 201 221 218 184 213 209 223 221 235 245 258 255 251 247 253 267 272 221 242 255 258 265 267 285 288 270 283 256 237 241 251 262 258 270 328 273 208 180 169 167 167
353 335 294 269 229 225 173 207 240 194 234 181 241 321 279 252 258 299 328 285 264 250 252 243 261 271 260 246 256 280 273 272 255 250 267 286 287 309 115 195 163 169 173 170 159
6 343 307 151 213 224 214 231 229 239 210 252 324 310 286 332 299 285 276 272 271 284 286 270 258 234 260 270 289 289 273 277 245 242 253 260 305 124 175 205 181 172 171 162 148